{"data":{"norad_id":66174,"intl_designator":"2025-241A","name":"HTV-X1","alt_names":[],"object_type":"PAYLOAD","status":"ACTIVE","operator":null,"country":"JPN","launch_date":"2025-10-26","launch_site_code":"TANSC","launch_vehicle":null,"mission":null,"orbit_class":"UNKNOWN","rcs_meters":null,"size_class":null,"mass_kg":null,"dimensions":null,"purposes":["station"],"wikipedia_slug":null,"has_3d_model":false,"image_url":null,"decayed_at":null,"tle_current":{"epoch":"2026-05-26T05:38:41.045856Z","epoch_age_seconds":10146442,"freshness":"OLD","line1":"1 66174U 25241A   26146.23519729  .00028651  00000+0  29012-3 0  9993","line2":"2 66174  51.6375  51.4083 0007157  89.2746 270.9069 15.65005268 32916","mean_motion":15.65005268,"eccentricity":0.0007157,"inclination_deg":51.6375,"raan_deg":51.4083,"arg_perigee_deg":89.2746,"mean_anomaly_deg":270.9069,"bstar":0.00029012,"rev_number":3291,"period_min":92.012469826396,"perigee_km":368.39165999509,"apogee_km":378.0555575705,"semimajor_km":6751.3606087828,"source":"CELESTRAK","updated_at":"2026-05-27T09:00:31.962424Z"}}}